| time (UTC) | temp C | wind direction | speed KPH | gust KPH | rain 1hr cm | rain 24hr cm | rain mn cm | humidity % | barometer mb |
| 20260906101446 | 21 | 234 | 0.0 | 0.0 | 0.00 | 0.00 | 0.00 | 97 | 1011.8 |
| 20260906100947 | 21 | 234 | 0.0 | 0.0 | 0.00 | 0.00 | 0.00 | 97 | 1011.8 |
| 20260906100442 | 21 | 234 | 0.0 | 0.0 | 0.00 | 0.00 | 0.00 | 97 | 1012.0 |
| 20260906095942 | 21 | 234 | 0.0 | 0.0 | 0.00 | 0.00 | 0.00 | 97 | 1011.9 |
| 20260906095437 | 21 | 234 | 0.0 | 0.0 | 0.00 | 0.00 | 0.00 | 97 | 1011.9 |
| 20260906094932 | 21 | 234 | 0.0 | 0.0 | 0.00 | 0.00 | 0.00 | 97 | 1011.8 |
| 20260906094426 | 21 | 234 | 0.0 | 0.0 | 0.00 | 0.00 | 0.00 | 97 | 1011.6 |
| 20260906093922 | 21 | 234 | 0.0 | 0.0 | 0.00 | 0.00 | 0.00 | 97 | 1011.8 |
| 20260906093419 | 21 | 234 | 0.0 | 0.0 | 0.00 | 0.00 | 0.00 | 97 | 1011.7 |
| 20260906092919 | 21 | 234 | 0.0 | 0.0 | 0.00 | 0.00 | 0.00 | 97 | 1011.6 |
| 20260906092418 | 21 | 234 | 0.0 | 0.0 | 0.00 | 0.00 | 0.00 | 97 | 1011.5 |
| 20260906091914 | 21 | 234 | 0.0 | 0.0 | 0.00 | 0.00 | 0.00 | 97 | 1011.5 |
| 20260906091410 | 21 | 234 | 0.0 | 0.0 | 0.00 | 0.00 | 0.00 | 97 | 1011.7 |
| 20260906090906 | 21 | 234 | 0.0 | 0.0 | 0.00 | 0.00 | 0.00 | 97 | 1011.5 |
| 20260906090406 | 21 | 234 | 0.0 | 0.0 | 0.00 | 0.00 | 0.00 | 97 | 1011.4 |
| 20260906085900 | 21 | 234 | 0.0 | 0.0 | 0.00 | 0.00 | 0.00 | 97 | 1011.4 |
| 20260906085400 | 21 | 234 | 0.0 | 0.0 | 0.00 | 0.00 | 0.00 | 97 | 1011.5 |
| 20260906084859 | 21 | 234 | 0.0 | 0.0 | 0.00 | 0.00 | 0.00 | 97 | 1011.4 |
| 20260906084354 | 21 | 234 | 1.6 | 1.6 | 0.00 | 0.00 | 0.00 | 97 | 1011.4 |
| 20260906083848 | 21 | 234 | 0.0 | 0.0 | 0.00 | 0.00 | 0.00 | 97 | 1011.3 |
| 20260906083344 | 21 | 234 | 0.0 | 0.0 | 0.00 | 0.00 | 0.00 | 97 | 1011.2 |
| 20260906082843 | 21 | 234 | 0.0 | 0.0 | 0.00 | 0.00 | 0.00 | 97 | 1011.5 |
| 20260906082338 | 21 | 234 | 0.0 | 0.0 | 0.00 | 0.00 | 0.00 | 97 | 1011.4 |
| 20260906081834 | 21 | 234 | 0.0 | 0.0 | 0.00 | 0.00 | 0.00 | 97 | 1011.6 |
| 20260906081330 | 21 | 234 | 0.0 | 0.0 | 0.00 | 0.00 | 0.00 | 97 | 1011.7 |
| 20260906080826 | 21 | 234 | 0.0 | 0.0 | 0.00 | 0.00 | 0.00 | 96 | 1011.6 |
| 20260906080322 | 21 | 234 | 0.0 | 0.0 | 0.00 | 0.00 | 0.00 | 96 | 1011.5 |
| 20260906075822 | 21 | 234 | 0.0 | 0.0 | 0.00 | 0.00 | 0.00 | 96 | 1011.6 |
| 20260906075322 | 21 | 234 | 0.0 | 0.0 | 0.00 | 0.00 | 0.00 | 96 | 1011.3 |
| 20260906074817 | 21 | 234 | 0.0 | 0.0 | 0.00 | 0.00 | 0.00 | 96 | 1011.4 |
| 20260906074317 | 21 | 234 | 0.0 | 0.0 | 0.00 | 0.00 | 0.00 | 96 | 1011.3 |
| 20260906073816 | 21 | 234 | 0.0 | 0.0 | 0.00 | 0.00 | 0.00 | 96 | 1011.4 |
| 20260906073311 | 21 | 234 | 0.0 | 0.0 | 0.00 | 0.00 | 0.00 | 95 | 1011.3 |
| 20260906072807 | 21 | 234 | 0.0 | 0.0 | 0.00 | 0.00 | 0.00 | 95 | 1011.5 |
| 20260906072305 | 21 | 234 | 0.0 | 0.0 | 0.00 | 0.00 | 0.00 | 95 | 1011.4 |
| 20260906071758 | 21 | 234 | 0.0 | 0.0 | 0.00 | 0.00 | 0.00 | 95 | 1011.6 |
| 20260906071258 | 22 | 234 | 0.0 | 0.0 | 0.00 | 0.00 | 0.00 | 94 | 1011.3 |
| 20260906070755 | 22 | 234 | 0.0 | 0.0 | 0.00 | 0.00 | 0.00 | 94 | 1011.5 |
| 20260906070250 | 22 | 234 | 0.0 | 0.0 | 0.00 | 0.00 | 0.00 | 94 | 1011.6 |
| 20260906065749 | 22 | 234 | 0.0 | 0.0 | 0.00 | 0.00 | 0.00 | 94 | 1011.6 |
| 20260906065245 | 22 | 234 | 0.0 | 0.0 | 0.00 | 0.00 | 0.00 | 94 | 1011.5 |
| 20260906064741 | 22 | 234 | 0.0 | 0.0 | 0.00 | 0.00 | 0.00 | 94 | 1011.4 |
| 20260906064237 | 22 | 234 | 0.0 | 0.0 | 0.00 | 0.00 | 0.00 | 94 | 1011.4 |
| 20260906063731 | 22 | 234 | 1.6 | 1.6 | 0.00 | 0.00 | 0.00 | 94 | 1011.3 |
| 20260906063227 | 22 | 234 | 1.6 | 1.6 | 0.00 | 0.00 | 0.00 | 94 | 1011.3 |
| 20260906062722 | 22 | 234 | 0.0 | 0.0 | 0.00 | 0.00 | 0.00 | 94 | 1011.4 |
| 20260906062221 | 22 | 234 | 0.0 | 0.0 | 0.00 | 0.00 | 0.00 | 94 | 1011.5 |
| 20260906061717 | 22 | 234 | 0.0 | 0.0 | 0.00 | 0.00 | 0.00 | 94 | 1011.7 |
| 20260906061213 | 22 | 234 | 0.0 | 0.0 | 0.00 | 0.00 | 0.00 | 94 | 1011.7 |
| 20260906060709 | 22 | 234 | 0.0 | 0.0 | 0.00 | 0.00 | 0.00 | 94 | 1011.7 |
| 20260906060206 | 22 | 235 | 0.0 | 0.0 | 0.00 | 0.00 | 0.00 | 94 | 1012.0 |
| 20260906055701 | 22 | 235 | 1.6 | 1.6 | 0.00 | 0.00 | 0.00 | 95 | 1012.0 |
| 20260906055156 | 22 | 235 | 0.0 | 0.0 | 0.00 | 0.00 | 0.00 | 94 | 1011.8 |
| 20260906054652 | 22 | 235 | 0.0 | 0.0 | 0.00 | 0.00 | 0.00 | 94 | 1012.0 |
| 20260906054152 | 22 | 235 | 0.0 | 0.0 | 0.00 | 0.00 | 0.00 | 94 | 1012.1 |
| 20260906053649 | 22 | 235 | 0.0 | 0.0 | 0.00 | 0.00 | 0.00 | 94 | 1012.2 |
| 20260906053144 | 22 | 235 | 0.0 | 0.0 | 0.00 | 0.00 | 0.00 | 94 | 1012.3 |
| 20260906052639 | 22 | 235 | 0.0 | 0.0 | 0.00 | 0.00 | 0.00 | 94 | 1012.3 |
| 20260906052136 | 22 | 235 | 0.0 | 0.0 | 0.00 | 0.00 | 0.00 | 93 | 1012.4 |
| 20260906051632 | 22 | 235 | 0.0 | 0.0 | 0.00 | 0.00 | 0.00 | 93 | 1012.3 |
| 20260906051131 | 22 | 235 | 1.6 | 1.6 | 0.00 | 0.00 | 0.00 | 93 | 1012.4 |
| 20260906050627 | 22 | 243 | 0.0 | 0.0 | 0.00 | 0.00 | 0.00 | 92 | 1012.4 |
| 20260906050122 | 22 | 246 | 0.0 | 0.0 | 0.00 | 0.00 | 0.00 | 92 | 1012.3 |
| 20260906045620 | 22 | 262 | 1.6 | 1.6 | 0.00 | 0.00 | 0.00 | 92 | 1012.2 |
| 20260906045116 | 22 | 231 | 1.6 | 1.6 | 0.00 | 0.00 | 0.00 | 92 | 1012.3 |
| 20260906044612 | 22 | 279 | 1.6 | 1.6 | 0.00 | 0.00 | 0.00 | 91 | 1012.6 |
| 20260906044106 | 22 | 259 | 1.6 | 1.6 | 0.00 | 0.00 | 0.00 | 90 | 1012.6 |
| 20260906043603 | 22 | 216 | 1.6 | 1.6 | 0.00 | 0.00 | 0.00 | 90 | 1012.7 |
| 20260906043058 | 22 | 216 | 1.6 | 1.6 | 0.00 | 0.00 | 0.00 | 90 | 1012.7 |
| 20260906042557 | 22 | 216 | 1.6 | 1.6 | 0.00 | 0.00 | 0.00 | 91 | 1012.5 |
| 20260906042052 | 22 | 215 | 1.6 | 1.6 | 0.00 | 0.00 | 0.00 | 92 | 1012.6 |
| 20260906041548 | 22 | 215 | 1.6 | 1.6 | 0.00 | 0.00 | 0.00 | 93 | 1012.5 |
| 20260906041043 | 22 | 215 | 1.6 | 1.6 | 0.00 | 0.00 | 0.00 | 94 | 1012.7 |
| 20260906040538 | 22 | 215 | 0.0 | 0.0 | 0.00 | 0.00 | 0.00 | 93 | 1012.4 |
| 20260906040034 | 22 | 215 | 0.0 | 0.0 | 0.00 | 0.79 | 0.79 | 93 | 1012.0 |
| 20260906035529 | 22 | 215 | 0.0 | 0.0 | 0.00 | 0.79 | 0.79 | 93 | 1012.4 |
| 20260906035025 | 22 | 215 | 0.0 | 0.0 | 0.00 | 0.79 | 0.79 | 92 | 1012.3 |
| 20260906034524 | 22 | 215 | 0.0 | 0.0 | 0.00 | 0.79 | 0.79 | 91 | 1012.4 |
| 20260906034019 | 23 | 215 | 0.0 | 0.0 | 0.00 | 0.79 | 0.79 | 91 | 1012.4 |
| 20260906033514 | 23 | 215 | 0.0 | 0.0 | 0.00 | 0.79 | 0.79 | 91 | 1012.2 |
| 20260906033010 | 23 | 215 | 0.0 | 1.6 | 0.00 | 0.79 | 0.79 | 91 | 1012.2 |
| 20260906032501 | 23 | 215 | 0.0 | 0.0 | 0.00 | 0.79 | 0.79 | 91 | 1012.3 |
| 20260906032000 | 23 | 215 | 3.2 | 3.2 | 0.00 | 0.79 | 0.79 | 91 | 1012.2 |
| 20260906031456 | 23 | 215 | 0.0 | 0.0 | 0.00 | 0.79 | 0.79 | 91 | 1012.5 |
| 20260906030951 | 23 | 215 | 0.0 | 0.0 | 0.00 | 0.79 | 0.79 | 91 | 1012.4 |
| 20260906030446 | 23 | 215 | 0.0 | 1.6 | 0.00 | 0.79 | 0.79 | 92 | 1012.5 |
| 20260906025940 | 23 | 215 | 0.0 | 0.0 | 0.00 | 0.79 | 0.79 | 91 | 1012.6 |
| 20260906025439 | 23 | 215 | 0.0 | 0.0 | 0.00 | 0.79 | 0.79 | 92 | 1012.7 |
| 20260906024938 | 23 | 215 | 0.0 | 0.0 | 0.00 | 0.79 | 0.79 | 92 | 1012.5 |
| 20260906024439 | 23 | 215 | 0.0 | 0.0 | 0.00 | 0.79 | 0.79 | 91 | 1012.7 |
| 20260906023939 | 23 | 215 | 0.0 | 0.0 | 0.00 | 0.79 | 0.79 | 91 | 1012.7 |
| 20260906023436 | 23 | 215 | 0.0 | 0.0 | 0.00 | 0.79 | 0.79 | 92 | 1012.7 |
| 20260906022936 | 23 | 215 | 0.0 | 0.0 | 0.00 | 0.79 | 0.79 | 92 | 1012.8 |
| 20260906022431 | 23 | 215 | 1.6 | 1.6 | 0.00 | 0.79 | 0.79 | 91 | 1013.0 |
| 20260906021926 | 23 | 212 | 1.6 | 1.6 | 0.00 | 0.79 | 0.79 | 91 | 1012.7 |
| 20260906021427 | 23 | 94 | 1.6 | 1.6 | 0.00 | 0.79 | 0.79 | 91 | 1012.6 |
| 20260906020926 | 23 | 94 | 0.0 | 0.0 | 0.00 | 0.79 | 0.79 | 92 | 1012.6 |
| 20260906020421 | 23 | 94 | 0.0 | 0.0 | 0.00 | 0.79 | 0.79 | 93 | 1012.5 |
| 20260906015915 | 23 | 95 | 0.0 | 0.0 | 0.00 | 0.79 | 0.79 | 94 | 1012.2 |
| 20260906015415 | 23 | 94 | 0.0 | 0.0 | 0.00 | 0.79 | 0.79 | 94 | 1012.2 |
| 20260906014915 | 23 | 94 | 0.0 | 0.0 | 0.00 | 0.79 | 0.79 | 93 | 1012.3 |
| 20260906014414 | 23 | 94 | 0.0 | 0.0 | 0.00 | 0.79 | 0.79 | 94 | 1012.2 |
| 20260906013911 | 23 | 94 | 0.0 | 0.0 | 0.00 | 0.79 | 0.79 | 94 | 1012.2 |
| 20260906013406 | 23 | 94 | 0.0 | 0.0 | 0.00 | 0.79 | 0.79 | 94 | 1012.1 |
| 20260906012902 | 23 | 94 | 0.0 | 0.0 | 0.00 | 0.79 | 0.79 | 94 | 1012.1 |
| 20260906012356 | 23 | 94 | 0.0 | 0.0 | 0.00 | 0.79 | 0.79 | 94 | 1012.0 |
| 20260906011856 | 23 | 94 | 0.0 | 0.0 | 0.00 | 0.79 | 0.79 | 94 | 1011.9 |
| 20260906011351 | 23 | 94 | 0.0 | 0.0 | 0.00 | 0.79 | 0.79 | 94 | 1011.8 |
| 20260906010846 | 23 | 94 | 0.0 | 0.0 | 0.00 | 0.79 | 0.79 | 94 | 1012.0 |
| 20260906010342 | 23 | 94 | 0.0 | 0.0 | 0.00 | 0.79 | 0.79 | 93 | 1011.6 |
| 20260906005838 | 23 | 94 | 0.0 | 0.0 | 0.00 | 0.79 | 0.79 | 93 | 1011.7 |
| 20260906005337 | 23 | 94 | 0.0 | 0.0 | 0.00 | 0.79 | 0.79 | 93 | 1011.9 |
| 20260906004836 | 23 | 94 | 0.0 | 0.0 | 0.00 | 0.79 | 0.79 | 92 | 1012.0 |
| 20260906004336 | 23 | 94 | 0.0 | 0.0 | 0.00 | 0.79 | 0.79 | 93 | 1012.1 |
| 20260906003831 | 23 | 94 | 0.0 | 0.0 | 0.00 | 0.79 | 0.79 | 93 | 1012.1 |
| 20260906003326 | 23 | 94 | 0.0 | 0.0 | 0.00 | 0.79 | 0.79 | 93 | 1012.2 |
| 20260906002822 | 23 | 94 | 0.0 | 0.0 | 0.00 | 0.79 | 0.79 | 93 | 1012.2 |
| 20260906002321 | 23 | 94 | 0.0 | 1.6 | 0.00 | 0.79 | 0.79 | 93 | 1012.2 |
| 20260906001817 | 23 | 94 | 1.6 | 1.6 | 0.00 | 0.79 | 0.79 | 92 | 1012.2 |
| 20260906001313 | 23 | 94 | 0.0 | 0.0 | 0.00 | 0.79 | 0.79 | 92 | 1012.6 |
| 20260906000813 | 24 | 94 | 1.6 | 1.6 | 0.00 | 0.79 | 0.79 | 92 | 1012.4 |
| 20260906000307 | 23 | 94 | 1.6 | 3.2 | 0.00 | 0.79 | 0.79 | 92 | 1012.6 |
| 20260905235802 | 24 | 94 | 0.0 | 0.0 | 0.00 | 0.79 | 0.79 | 92 | 1012.5 |
| 20260905235306 | 24 | 94 | 0.0 | 0.0 | 0.00 | 0.79 | 0.79 | 91 | 1012.6 |
| 20260905234758 | 24 | 94 | 0.0 | 0.0 | 0.00 | 0.79 | 0.79 | 91 | 1012.3 |
| 20260905234253 | 24 | 94 | 0.0 | 0.0 | 0.00 | 0.79 | 0.79 | 90 | 1012.6 |
| 20260905233748 | 24 | 94 | 0.0 | 0.0 | 0.00 | 0.79 | 0.79 | 89 | 1012.5 |
| 20260905233248 | 24 | 94 | 0.0 | 0.0 | 0.00 | 0.79 | 0.79 | 90 | 1012.5 |
| 20260905232747 | 24 | 129 | 0.0 | 0.0 | 0.00 | 0.79 | 0.79 | 90 | 1012.4 |
| 20260905232243 | 24 | 128 | 0.0 | 0.0 | 0.00 | 0.79 | 0.79 | 91 | 1012.4 |
| 20260905231739 | 24 | 150 | 0.0 | 0.0 | 0.00 | 0.79 | 0.79 | 91 | 1012.4 |
| 20260905231234 | 24 | 150 | 0.0 | 0.0 | 0.00 | 0.79 | 0.79 | 90 | 1012.2 |
| 20260905230730 | 24 | 150 | 0.0 | 0.0 | 0.00 | 0.79 | 0.79 | 89 | 1011.9 |
| 20260905230228 | 24 | 226 | 0.0 | 0.0 | 0.00 | 0.79 | 0.79 | 88 | 1012.2 |
| 20260905225728 | 24 | 227 | 0.0 | 0.0 | 0.00 | 0.79 | 0.79 | 88 | 1011.3 |
| 20260905225223 | 24 | 228 | 1.6 | 3.2 | 0.00 | 0.79 | 0.79 | 87 | 1010.9 |
| 20260905224722 | 24 | 233 | 1.6 | 1.6 | 0.00 | 0.79 | 0.79 | 88 | 1010.9 |
| 20260905224217 | 24 | 240 | 1.6 | 1.6 | 0.00 | 0.79 | 0.79 | 89 | 1011.2 |
| 20260905223714 | 24 | 206 | 3.2 | 1.6 | 0.00 | 0.79 | 0.79 | 89 | 1011.3 |
| 20260905223210 | 24 | 267 | 3.2 | 3.2 | 0.00 | 0.79 | 0.79 | 87 | 1011.7 |
| 20260905222706 | 24 | 290 | 6.4 | 11.3 | 0.00 | 0.79 | 0.79 | 87 | 1011.7 |
| 20260905222205 | 24 | 247 | 0.0 | 0.0 | 0.00 | 0.79 | 0.79 | 86 | 1011.8 |
| 20260905221700 | 24 | 226 | 4.8 | 6.4 | 0.00 | 0.79 | 0.79 | 86 | 1011.5 |
| 20260905221157 | 24 | 219 | 1.6 | 1.6 | 0.00 | 0.79 | 0.79 | 85 | 1011.5 |
| 20260905220653 | 23 | 198 | 3.2 | 3.2 | 0.00 | 0.79 | 0.79 | 92 | 1011.6 |
| 20260905220149 | 23 | 88 | 1.6 | 1.6 | 0.00 | 0.79 | 0.79 | 94 | 1011.5 |
| 20260905215648 | 22 | 87 | 0.0 | 0.0 | 0.13 | 0.79 | 0.79 | 92 | 1011.2 |
| 20260905215144 | 22 | 87 | 0.0 | 0.0 | 0.61 | 0.79 | 0.79 | 88 | 1010.8 |
| 20260905214641 | 23 | 75 | 0.0 | 0.0 | 2.16 | 0.76 | 0.76 | 85 | 1010.5 |
| 20260905214141 | 23 | 74 | 0.0 | 0.0 | 3.66 | 0.71 | 0.71 | 77 | 1011.1 |
| 20260905213636 | 24 | 329 | 6.4 | 9.7 | 2.11 | 0.36 | 0.36 | 73 | 1011.4 |
| 20260905213131 | 27 | 204 | 9.7 | 14.5 | 0.00 | 0.00 | 0.00 | 61 | 1011.1 |
| 20260905212626 | 29 | 356 | 8.0 | 17.7 | 0.00 | 0.00 | 0.00 | 56 | 1011.8 |
| 20260905212126 | 30 | 55 | 6.4 | 6.4 | 0.00 | 0.00 | 0.00 | 52 | 1012.1 |
| 20260905211621 | 31 | 38 | 4.8 | 11.3 | 0.00 | 0.00 | 0.00 | 49 | 1011.5 |
| 20260905211117 | 31 | 26 | 3.2 | 3.2 | 0.00 | 0.00 | 0.00 | 48 | 1010.6 |
| 20260905210613 | 31 | 134 | 4.8 | 11.3 | 0.00 | 0.00 | 0.00 | 49 | 1010.3 |
| 20260905210107 | 31 | 49 | 3.2 | 3.2 | 0.00 | 0.00 | 0.00 | 48 | 1010.5 |
| 20260905205606 | 31 | 35 | 3.2 | 6.4 | 0.00 | 0.00 | 0.00 | 47 | 1010.7 |
| 20260905205107 | 32 | 347 | 8.0 | 12.9 | 0.00 | 0.00 | 0.00 | 41 | 1011.5 |
| 20260905204606 | 34 | 355 | 6.4 | 14.5 | 0.00 | 0.00 | 0.00 | 38 | 1011.1 |
| 20260905204102 | 37 | 144 | 14.5 | 20.9 | 0.00 | 0.00 | 0.00 | 35 | 1011.1 |
| 20260905203602 | 38 | 50 | 4.8 | 6.4 | 0.00 | 0.00 | 0.00 | 37 | 1010.6 |
| 20260905203057 | 38 | 23 | 1.6 | 1.6 | 0.00 | 0.00 | 0.00 | 36 | 1010.4 |
| 20260905202553 | 38 | 33 | 1.6 | 1.6 | 0.00 | 0.00 | 0.00 | 37 | 1010.3 |
| 20260905202048 | 37 | 66 | 0.0 | 1.6 | 0.00 | 0.00 | 0.00 | 39 | 1010.0 |
| 20260905201543 | 38 | 135 | 3.2 | 3.2 | 0.00 | 0.00 | 0.00 | 38 | 1010.2 |
| 20260905201043 | 38 | 206 | 1.6 | 1.6 | 0.00 | 0.00 | 0.00 | 37 | 1010.4 |
| 20260905200538 | 38 | 124 | 4.8 | 6.4 | 0.00 | 0.00 | 0.00 | 36 | 1010.5 |
| 20260905200038 | 39 | 216 | 3.2 | 3.2 | 0.00 | 0.00 | 0.00 | 37 | 1010.3 |
| 20260905195532 | 39 | 210 | 1.6 | 3.2 | 0.00 | 0.00 | 0.00 | 37 | 1010.5 |
| 20260905195028 | 39 | 227 | 3.2 | 3.2 | 0.00 | 0.00 | 0.00 | 37 | 1010.3 |
| 20260905194527 | 38 | 240 | 1.6 | 1.6 | 0.00 | 0.00 | 0.00 | 38 | 1010.5 |
| 20260905194027 | 39 | 190 | 3.2 | 3.2 | 0.00 | 0.00 | 0.00 | 36 | 1010.5 |
| 20260905193521 | 40 | 292 | 3.2 | 3.2 | 0.00 | 0.00 | 0.00 | 34 | 1010.7 |
| 20260905193017 | 40 | 30 | 1.6 | 3.2 | 0.00 | 0.00 | 0.00 | 35 | 1010.6 |
| 20260905192513 | 39 | 241 | 1.6 | 1.6 | 0.00 | 0.00 | 0.00 | 35 | 1010.5 |
| 20260905192009 | 39 | 207 | 1.6 | 1.6 | 0.00 | 0.00 | 0.00 | 38 | 1010.7 |
| 20260905191507 | 40 | 238 | 1.6 | 1.6 | 0.00 | 0.00 | 0.00 | 37 | 1010.9 |
| 20260905191006 | 39 | 211 | 3.2 | 3.2 | 0.00 | 0.00 | 0.00 | 38 | 1010.9 |
| 20260905190504 | 39 | 206 | 4.8 | 6.4 | 0.00 | 0.00 | 0.00 | 38 | 1010.8 |
| 20260905190003 | 39 | 251 | 3.2 | 3.2 | 0.00 | 0.00 | 0.00 | 38 | 1011.0 |
| 20260905185458 | 40 | 303 | 3.2 | 3.2 | 0.00 | 0.00 | 0.00 | 37 | 1011.1 |
| 20260905184957 | 40 | 253 | 0.0 | 0.0 | 0.00 | 0.00 | 0.00 | 38 | 1011.1 |
| 20260905184452 | 39 | 180 | 1.6 | 3.2 | 0.00 | 0.00 | 0.00 | 38 | 1011.2 |
| 20260905183950 | 38 | 229 | 1.6 | 1.6 | 0.00 | 0.00 | 0.00 | 41 | 1011.4 |
| 20260905183445 | 37 | 33 | 3.2 | 3.2 | 0.00 | 0.00 | 0.00 | 41 | 1011.2 |
| 20260905182940 | 37 | 148 | 6.4 | 9.7 | 0.00 | 0.00 | 0.00 | 41 | 1011.6 |
| 20260905182439 | 37 | 247 | 3.2 | 3.2 | 0.00 | 0.00 | 0.00 | 43 | 1011.9 |
| 20260905181935 | 37 | 274 | 0.0 | 0.0 | 0.00 | 0.00 | 0.00 | 43 | 1012.0 |
| 20260905181435 | 38 | 284 | 1.6 | 3.2 | 0.00 | 0.00 | 0.00 | 39 | 1012.1 |
| 20260905180934 | 39 | 327 | 3.2 | 3.2 | 0.00 | 0.00 | 0.00 | 39 | 1012.0 |
| 20260905180429 | 38 | 265 | 0.0 | 0.0 | 0.00 | 0.00 | 0.00 | 42 | 1012.0 |
| 20260905175924 | 37 | 175 | 1.6 | 1.6 | 0.00 | 0.00 | 0.00 | 41 | 1012.2 |
| 20260905175423 | 37 | 282 | 3.2 | 3.2 | 0.00 | 0.00 | 0.00 | 43 | 1012.3 |
| 20260905174919 | 38 | 223 | 3.2 | 3.2 | 0.00 | 0.00 | 0.00 | 41 | 1012.4 |
| 20260905174414 | 38 | 225 | 1.6 | 1.6 | 0.00 | 0.00 | 0.00 | 43 | 1012.4 |
| 20260905173910 | 38 | 220 | 1.6 | 1.6 | 0.00 | 0.00 | 0.00 | 43 | 1012.4 |
| 20260905173406 | 37 | 18 | 1.6 | 1.6 | 0.00 | 0.00 | 0.00 | 43 | 1012.5 |
| 20260905172901 | 36 | 231 | 1.6 | 1.6 | 0.00 | 0.00 | 0.00 | 44 | 1012.7 |
| 20260905172359 | 36 | 9 | 1.6 | 1.6 | 0.00 | 0.00 | 0.00 | 46 | 1012.6 |
| 20260905171855 | 37 | 335 | 1.6 | 1.6 | 0.00 | 0.00 | 0.00 | 44 | 1012.7 |
| 20260905171351 | 36 | 219 | 3.2 | 3.2 | 0.00 | 0.00 | 0.00 | 45 | 1013.0 |
| 20260905170848 | 36 | 216 | 1.6 | 3.2 | 0.00 | 0.00 | 0.00 | 47 | 1013.0 |
| 20260905170344 | 36 | 220 | 3.2 | 3.2 | 0.00 | 0.00 | 0.00 | 45 | 1013.0 |
| 20260905165842 | 36 | 261 | 0.0 | 0.0 | 0.00 | 0.00 | 0.00 | 47 | 1013.1 |
| 20260905165338 | 36 | 177 | 4.8 | 6.4 | 0.00 | 0.00 | 0.00 | 48 | 1013.0 |
| 20260905164838 | 35 | 215 | 4.8 | 6.4 | 0.00 | 0.00 | 0.00 | 50 | 1013.4 |
| 20260905164333 | 35 | 254 | 1.6 | 1.6 | 0.00 | 0.00 | 0.00 | 51 | 1013.5 |
| 20260905163828 | 36 | 197 | 0.0 | 1.6 | 0.00 | 0.00 | 0.00 | 48 | 1013.5 |
| 20260905163325 | 36 | 212 | 0.0 | 0.0 | 0.00 | 0.00 | 0.00 | 48 | 1013.5 |
| 20260905162820 | 35 | 204 | 1.6 | 1.6 | 0.00 | 0.00 | 0.00 | 51 | 1013.7 |
| 20260905162315 | 35 | 33 | 1.6 | 1.6 | 0.00 | 0.00 | 0.00 | 53 | 1013.8 |
| 20260905161815 | 35 | 219 | 1.6 | 1.6 | 0.00 | 0.00 | 0.00 | 53 | 1013.6 |
| 20260905161314 | 34 | 204 | 1.6 | 1.6 | 0.00 | 0.00 | 0.00 | 54 | 1013.7 |
| 20260905160812 | 34 | 257 | 3.2 | 4.8 | 0.00 | 0.00 | 0.00 | 55 | 1013.7 |
| 20260905160307 | 34 | 262 | 0.0 | 0.0 | 0.00 | 0.00 | 0.00 | 55 | 1013.8 |
| 20260905155801 | 34 | 244 | 3.2 | 3.2 | 0.00 | 0.00 | 0.00 | 55 | 1013.8 |
| 20260905155301 | 34 | 217 | 3.2 | 4.8 | 0.00 | 0.00 | 0.00 | 54 | 1013.8 |
| 20260905154755 | 33 | 303 | 3.2 | 4.8 | 0.00 | 0.00 | 0.00 | 56 | 1014.1 |
| 20260905154251 | 33 | 229 | 3.2 | 3.2 | 0.00 | 0.00 | 0.00 | 57 | 1014.1 |
| 20260905153746 | 33 | 225 | 3.2 | 3.2 | 0.00 | 0.00 | 0.00 | 57 | 1013.9 |
| 20260905153242 | 33 | 208 | 3.2 | 3.2 | 0.00 | 0.00 | 0.00 | 58 | 1014.3 |
| 20260905152737 | 33 | 230 | 3.2 | 4.8 | 0.00 | 0.00 | 0.00 | 57 | 1014.3 |
| 20260905152236 | 33 | 286 | 1.6 | 3.2 | 0.00 | 0.00 | 0.00 | 57 | 1014.1 |
| 20260905151736 | 32 | 236 | 3.2 | 4.8 | 0.00 | 0.00 | 0.00 | 59 | 1014.4 |
| 20260905151233 | 32 | 254 | 3.2 | 6.4 | 0.00 | 0.00 | 0.00 | 59 | 1014.2 |
| 20260905150732 | 32 | 230 | 1.6 | 1.6 | 0.00 | 0.00 | 0.00 | 60 | 1014.4 |
| 20260905150231 | 32 | 229 | 3.2 | 3.2 | 0.00 | 0.00 | 0.00 | 61 | 1014.4 |
| 20260905145729 | 32 | 216 | 3.2 | 3.2 | 0.00 | 0.00 | 0.00 | 61 | 1014.5 |
| 20260905145224 | 31 | 195 | 4.8 | 6.4 | 0.00 | 0.00 | 0.00 | 63 | 1014.6 |
| 20260905144723 | 31 | 230 | 3.2 | 3.2 | 0.00 | 0.00 | 0.00 | 65 | 1014.6 |
| 20260905144218 | 31 | 195 | 1.6 | 1.6 | 0.00 | 0.00 | 0.00 | 64 | 1014.5 |
| 20260905143717 | 31 | 249 | 3.2 | 3.2 | 0.00 | 0.00 | 0.00 | 65 | 1014.9 |
| 20260905143217 | 31 | 274 | 3.2 | 3.2 | 0.00 | 0.00 | 0.00 | 65 | 1014.9 |
| 20260905142715 | 31 | 237 | 1.6 | 1.6 | 0.00 | 0.00 | 0.00 | 68 | 1014.6 |
| 20260905142210 | 30 | 292 | 1.6 | 1.6 | 0.00 | 0.00 | 0.00 | 69 | 1014.6 |
| 20260905141706 | 30 | 314 | 3.2 | 3.2 | 0.00 | 0.00 | 0.00 | 70 | 1014.6 |
| 20260905141203 | 30 | 201 | 3.2 | 3.2 | 0.00 | 0.00 | 0.00 | 70 | 1014.5 |
| 20260905140657 | 30 | 203 | 1.6 | 1.6 | 0.00 | 0.00 | 0.00 | 71 | 1014.7 |
| 20260905140157 | 30 | 208 | 3.2 | 3.2 | 0.00 | 0.00 | 0.00 | 71 | 1014.5 |
| 20260905135652 | 30 | 229 | 1.6 | 1.6 | 0.00 | 0.00 | 0.00 | 71 | 1014.6 |
| 20260905135148 | 29 | 203 | 1.6 | 3.2 | 0.00 | 0.00 | 0.00 | 73 | 1014.9 |
| 20260905134647 | 30 | 189 | 1.6 | 1.6 | 0.00 | 0.00 | 0.00 | 74 | 1014.6 |
| 20260905134146 | 28 | 192 | 0.0 | 0.0 | 0.00 | 0.00 | 0.00 | 75 | 1014.6 |
| 20260905133642 | 28 | 200 | 3.2 | 3.2 | 0.00 | 0.00 | 0.00 | 76 | 1014.7 |
| 20260905133141 | 28 | 286 | 3.2 | 3.2 | 0.00 | 0.00 | 0.00 | 77 | 1014.7 |
| 20260905132641 | 28 | 306 | 4.8 | 4.8 | 0.00 | 0.00 | 0.00 | 77 | 1014.7 |
| 20260905132136 | 28 | 187 | 3.2 | 3.2 | 0.00 | 0.00 | 0.00 | 79 | 1014.8 |
| 20260905131631 | 27 | 254 | 3.2 | 4.8 | 0.00 | 0.00 | 0.00 | 80 | 1014.7 |
| 20260905131127 | 27 | 235 | 3.2 | 4.8 | 0.00 | 0.00 | 0.00 | 80 | 1014.7 |
| 20260905130627 | 27 | 261 | 1.6 | 1.6 | 0.00 | 0.00 | 0.00 | 82 | 1014.9 |
| 20260905130127 | 26 | 258 | 1.6 | 1.6 | 0.00 | 0.00 | 0.00 | 84 | 1014.9 |
| 20260905125626 | 26 | 266 | 1.6 | 1.6 | 0.00 | 0.00 | 0.00 | 85 | 1015.0 |
| 20260905125122 | 26 | 268 | 4.8 | 4.8 | 0.00 | 0.00 | 0.00 | 85 | 1014.9 |
| 20260905124619 | 26 | 241 | 1.6 | 1.6 | 0.00 | 0.00 | 0.00 | 86 | 1015.1 |
| 20260905124114 | 26 | 225 | 1.6 | 1.6 | 0.00 | 0.00 | 0.00 | 86 | 1014.9 |
| 20260905123609 | 26 | 272 | 1.6 | 1.6 | 0.00 | 0.00 | 0.00 | 87 | 1015.0 |
| 20260905123107 | 26 | 286 | 1.6 | 3.2 | 0.00 | 0.00 | 0.00 | 87 | 1015.0 |
| 20260905122606 | 26 | 300 | 3.2 | 3.2 | 0.00 | 0.00 | 0.00 | 88 | 1014.7 |
| 20260905122106 | 25 | 227 | 1.6 | 1.6 | 0.00 | 0.00 | 0.00 | 88 | 1014.6 |
| 20260905121601 | 25 | 208 | 1.6 | 1.6 | 0.00 | 0.00 | 0.00 | 88 | 1014.7 |
| 20260905121056 | 25 | 211 | 1.6 | 1.6 | 0.00 | 0.00 | 0.00 | 88 | 1014.6 |
| 20260905120555 | 25 | 251 | 3.2 | 1.6 | 0.00 | 0.00 | 0.00 | 89 | 1014.5 |
| 20260905120051 | 25 | 265 | 3.2 | 3.2 | 0.00 | 0.00 | 0.00 | 89 | 1014.6 |
| 20260905115550 | 25 | 216 | 3.2 | 3.2 | 0.00 | 0.00 | 0.00 | 90 | 1014.5 |
| 20260905115045 | 25 | 247 | 3.2 | 4.8 | 0.00 | 0.00 | 0.00 | 90 | 1014.4 |
| 20260905114544 | 25 | 243 | 1.6 | 1.6 | 0.00 | 0.00 | 0.00 | 90 | 1014.3 |
| 20260905114043 | 25 | 245 | 1.6 | 1.6 | 0.00 | 0.00 | 0.00 | 91 | 1014.5 |
| 20260905113538 | 25 | 260 | 1.6 | 1.6 | 0.00 | 0.00 | 0.00 | 91 | 1014.5 |
| 20260905113033 | 25 | 260 | 1.6 | 1.6 | 0.00 | 0.00 | 0.00 | 91 | 1014.3 |
| 20260905112529 | 25 | 260 | 1.6 | 1.6 | 0.00 | 0.00 | 0.00 | 91 | 1014.2 |
| 20260905112024 | 25 | 260 | 0.0 | 0.0 | 0.00 | 0.00 | 0.00 | 91 | 1014.1 |
| 20260905111519 | 25 | 261 | 1.6 | 1.6 | 0.00 | 0.00 | 0.00 | 91 | 1014.4 |
| 20260905111018 | 25 | 262 | 0.0 | 1.6 | 0.00 | 0.00 | 0.00 | 91 | 1014.2 |
| 20260905110517 | 25 | 262 | 1.6 | 1.6 | 0.00 | 0.00 | 0.00 | 91 | 1014.2 |
| 20260905110013 | 25 | 280 | 1.6 | 1.6 | 0.00 | 0.00 | 0.00 | 91 | 1014.2 |
| 20260905105507 | 25 | 281 | 0.0 | 0.0 | 0.00 | 0.00 | 0.00 | 91 | 1014.1 |
| 20260905105001 | 25 | 281 | 3.2 | 3.2 | 0.00 | 0.00 | 0.00 | 91 | 1014.1 |
| 20260905104457 | 25 | 281 | 1.6 | 1.6 | 0.00 | 0.00 | 0.00 | 91 | 1013.9 |
| 20260905103957 | 25 | 281 | 1.6 | 1.6 | 0.00 | 0.00 | 0.00 | 91 | 1013.9 |
| 20260905103452 | 25 | 282 | 1.6 | 1.6 | 0.00 | 0.00 | 0.00 | 91 | 1013.9 |
| 20260905102948 | 25 | 282 | 1.6 | 1.6 | 0.00 | 0.00 | 0.00 | 91 | 1013.9 |
| 20260905102444 | 25 | 297 | 3.2 | 3.2 | 0.00 | 0.00 | 0.00 | 91 | 1014.0 |
| 20260905101939 | 25 | 312 | 1.6 | 1.6 | 0.00 | 0.00 | 0.00 | 91 | 1013.7 |